When you browse on this site, cookies collect data to enhance your experience and personalize the content and advertising you see.
Visit our Privacy Policy to learn more. By continuing to use the site, you agree to this use of cookies and data.
  • In Czech Republic
  • List of Countries
  • For 7 days
  • Water Temperature
  • Satellite Maps
  • Weather Map
  • Weather Widgets
  • user-avatar
    Login

    Hourly Weather Minot

    Today, 21 April, Sunday

    Time Temperature Precipitation Wind Pressure Humidity
    00:00 +10°C° 0 mm 2 mps 714 mmHg 83%
    01:00 +9°C° 0 mm 2 mps 714 mmHg 84%
    02:00 +10°C° 0 mm 1 mps 714 mmHg 84%
    03:00 +8°C° 0 mm 2 mps 715 mmHg 84%
    04:00 +8°C° 0 mm 2 mps 715 mmHg 84%
    05:00 +8°C° 0 mm 2 mps 716 mmHg 84%
    06:00 +9°C° 0 mm 2 mps 716 mmHg 77%
    07:00 +10°C° 0 mm 2 mps 717 mmHg 70%
    08:00 +12°C° 0 mm 2 mps 718 mmHg 63%
    09:00 +13°C° 0 mm 2 mps 718 mmHg 56%
    10:00 +14°C° 0 mm 2 mps 718 mmHg 49%
    11:00 +15°C° 0 mm 2 mps 719 mmHg 42%
    12:00 +16°C° 0 mm 3 mps 719 mmHg 37%
    13:00 +17°C° 0 mm 3 mps 719 mmHg 32%
    14:00 +18°C° 0 mm 3 mps 719 mmHg 27%
    15:00 +18°C° 0 mm 4 mps 719 mmHg 27%
    16:00 +17°C° 0 mm 4 mps 719 mmHg 26%
    17:00 +16°C° 0 mm 5 mps 719 mmHg 26%
    18:00 +14°C° 0 mm 4 mps 719 mmHg 30%
    19:00 +13°C° 0 mm 4 mps 720 mmHg 34%
    20:00 +11°C° 0 mm 3 mps 720 mmHg 37%
    21:00 +11°C° 0 mm 3 mps 721 mmHg 40%
    22:00 +10°C° 0 mm 3 mps 721 mmHg 42%
    23:00 +9°C° 0 mm 3 mps 721 mmHg 45%

    Tomorrow, 22 April, Monday

    Time Temperature Precipitation Wind Pressure Humidity
    00:00 +8°C° 0 mm 2 mps 721 mmHg 47%
    01:00 +8°C° 0 mm 2 mps 722 mmHg 48%
    02:00 +7°C° 0 mm 2 mps 722 mmHg 50%
    03:00 +7°C° 0 mm 2 mps 722 mmHg 53%
    04:00 +6°C° 0 mm 2 mps 722 mmHg 56%
    05:00 +6°C° 0 mm 2 mps 722 mmHg 59%
    06:00 +7°C° 0 mm 2 mps 723 mmHg 54%
    07:00 +9°C° 0 mm 2 mps 723 mmHg 50%
    08:00 +12°C° 0 mm 2 mps 724 mmHg 45%
    09:00 +13°C° 0 mm 2 mps 724 mmHg 41%
    10:00 +14°C° 0 mm 2 mps 724 mmHg 37%
    11:00 +15°C° 0 mm 2 mps 724 mmHg 33%
    12:00 +16°C° 0 mm 2 mps 723 mmHg 32%
    13:00 +18°C° 0 mm 1 mps 723 mmHg 30%
    14:00 +18°C° 0 mm 1 mps 723 mmHg 28%
    15:00 +18°C° 0 mm 1 mps 722 mmHg 27%
    16:00 +18°C° 0 mm 1 mps 722 mmHg 27%
    17:00 +18°C° 0 mm 1 mps 722 mmHg 27%
    18:00 +16°C° 0 mm 1 mps 722 mmHg 30%
    19:00 +15°C° 0 mm 1 mps 722 mmHg 33%
    20:00 +13°C° 0 mm 1 mps 722 mmHg 36%
    21:00 +13°C° 0 mm 2 mps 722 mmHg 38%
    22:00 +12°C° 0 mm 2 mps 722 mmHg 40%
    23:00 +12°C° 0 mm 2 mps 721 mmHg 42%

    Day after tomorrow, 23 April, Tuesday

    Time Temperature Precipitation Wind Pressure Humidity
    00:00 +10°C° 0 mm 3 mps 721 mmHg 45%
    01:00 +9°C° 0 mm 3 mps 721 mmHg 48%
    02:00 +9°C° 0 mm 3 mps 721 mmHg 51%
    03:00 +9°C° 0 mm 3 mps 720 mmHg 54%
    04:00 +8°C° 0 mm 3 mps 720 mmHg 56%
    05:00 +8°C° 0 mm 3 mps 720 mmHg 58%
    06:00 +10°C° 0 mm 4 mps 720 mmHg 52%
    07:00 +12°C° 0 mm 5 mps 720 mmHg 46%
    08:00 +14°C° 0 mm 6 mps 720 mmHg 40%
    09:00 +15°C° 0 mm 6 mps 719 mmHg 36%
    10:00 +17°C° 0 mm 7 mps 719 mmHg 31%
    11:00 +18°C° 0 mm 7 mps 719 mmHg 27%
    12:00 +20°C° 0 mm 7 mps 718 mmHg 26%
    13:00 +21°C° 0 mm 7 mps 717 mmHg 25%
    14:00 +22°C° 0 mm 7 mps 716 mmHg 25%
    15:00 +22°C° 0 mm 6 mps 716 mmHg 27%
    16:00 +22°C° 0 mm 6 mps 715 mmHg 29%
    17:00 +22°C° 0 mm 5 mps 714 mmHg 31%
    18:00 +21°C° 0 mm 5 mps 714 mmHg 36%
    19:00 +19°C° 0 mm 5 mps 714 mmHg 40%
    20:00 +17°C° 0 mm 5 mps 714 mmHg 44%
    21:00 +16°C° 0 mm 6 mps 713 mmHg 46%
    22:00 +16°C° 0 mm 6 mps 713 mmHg 48%
    23:00 +15°C° 0 mm 6 mps 713 mmHg 49%

    24 April, Wednesday

    Time Temperature Precipitation Wind Pressure Humidity
    00:00 +15°C° 0 mm 6 mps 713 mmHg 51%
    01:00 +14°C° 0 mm 5 mps 712 mmHg 54%
    02:00 +14°C° 0 mm 5 mps 712 mmHg 56%
    03:00 +13°C° 0 mm 5 mps 712 mmHg 58%
    04:00 +13°C° 0 mm 4 mps 712 mmHg 60%
    05:00 +13°C° 0 mm 4 mps 712 mmHg 62%
    06:00 +14°C° 0 mm 5 mps 712 mmHg 58%
    07:00 +16°C° 0 mm 5 mps 712 mmHg 53%
    08:00 +19°C° 0 mm 6 mps 712 mmHg 48%
    09:00 +20°C° 0 mm 6 mps 713 mmHg 44%
    10:00 +22°C° 0 mm 7 mps 713 mmHg 40%
    11:00 +23°C° 0 mm 7 mps 713 mmHg 36%
    12:00 +22°C° 0.1 mm 7 mps 713 mmHg 39%
    13:00 +22°C° 0.1 mm 7 mps 713 mmHg 42%
    14:00 +21°C° 0.1 mm 7 mps 713 mmHg 44%
    15:00 +20°C° 0.2 mm 6 mps 713 mmHg 44%
    16:00 +19°C° 0.2 mm 5 mps 714 mmHg 43%
    17:00 +19°C° 0.2 mm 5 mps 714 mmHg 43%
    18:00 +18°C° 0 mm 3 mps 715 mmHg 44%
    19:00 +17°C° 0 mm 2 mps 715 mmHg 45%
    20:00 +16°C° 0 mm 1 mps 716 mmHg 47%
    21:00 +15°C° 0 mm 2 mps 716 mmHg 52%
    22:00 +14°C° 0 mm 2 mps 716 mmHg 56%
    23:00 +12°C° 0 mm 3 mps 716 mmHg 61%

    25 April, Thursday

    Time Temperature Precipitation Wind Pressure Humidity
    00:00 +11°C° 0 mm 3 mps 717 mmHg 67%
    01:00 +12°C° 0 mm 2 mps 717 mmHg 72%
    02:00 +10°C° 0 mm 2 mps 718 mmHg 77%
    03:00 +10°C° 0 mm 2 mps 718 mmHg 78%
    04:00 +10°C° 0 mm 1 mps 719 mmHg 78%
    05:00 +10°C° 0 mm 1 mps 719 mmHg 79%
    06:00 +12°C° 0 mm 1 mps 720 mmHg 69%
    07:00 +13°C° 0 mm 2 mps 720 mmHg 60%
    08:00 +15°C° 0 mm 2 mps 720 mmHg 51%
    09:00 +16°C° 0 mm 2 mps 720 mmHg 46%
    10:00 +17°C° 0 mm 2 mps 720 mmHg 40%
    11:00 +18°C° 0 mm 2 mps 721 mmHg 35%
    12:00 +19°C° 0 mm 2 mps 720 mmHg 35%
    13:00 +19°C° 0 mm 2 mps 720 mmHg 35%
    14:00 +19°C° 0 mm 2 mps 720 mmHg 35%
    15:00 +19°C° 0 mm 3 mps 719 mmHg 36%
    16:00 +18°C° 0 mm 3 mps 719 mmHg 37%
    17:00 +18°C° 0 mm 3 mps 719 mmHg 38%
    18:00 +17°C° 0 mm 3 mps 719 mmHg 39%
    19:00 +14°C° 0 mm 3 mps 719 mmHg 41%
    20:00 +13°C° 0 mm 3 mps 720 mmHg 42%
    21:00 +12°C° 0.1 mm 3 mps 720 mmHg 42%
    22:00 +12°C° 0.1 mm 3 mps 720 mmHg 42%
    23:00 +11°C° 0.1 mm 3 mps 720 mmHg 42%

    26 April, Friday

    Time Temperature Precipitation Wind Pressure Humidity
    00:00 +10°C° 0.6 mm 4 mps 720 mmHg 50%
    01:00 +10°C° 0.6 mm 4 mps 719 mmHg 57%
    02:00 +8°C° 0.6 mm 5 mps 719 mmHg 64%
    03:00 +8°C° 0.2 mm 5 mps 719 mmHg 66%
    04:00 +7°C° 0.2 mm 5 mps 719 mmHg 68%
    05:00 +7°C° 0.2 mm 5 mps 719 mmHg 71%
    06:00 +7°C° 2 mm 5 mps 719 mmHg 74%
    07:00 +6°C° 2 mm 5 mps 719 mmHg 78%
    08:00 +5°C° 2 mm 6 mps 719 mmHg 82%
    09:00 +5°C° 0.8 mm 6 mps 719 mmHg 82%
    10:00 +5°C° 0.8 mm 6 mps 718 mmHg 82%
    11:00 +5°C° 0.8 mm 7 mps 718 mmHg 83%
    12:00 +6°C° 0 mm 7 mps 718 mmHg 81%
    13:00 +6°C° 0 mm 7 mps 717 mmHg 79%
    14:00 +7°C° 0 mm 8 mps 717 mmHg 77%
    15:00 +8°C° 0 mm 7 mps 716 mmHg 78%
    16:00 +8°C° 0 mm 7 mps 715 mmHg 79%
    17:00 +8°C° 0 mm 7 mps 715 mmHg 81%
    18:00 +6°C° 0 mm 7 mps 714 mmHg 83%
    19:00 +7°C° 0 mm 6 mps 714 mmHg 85%
    20:00 +7°C° 0 mm 6 mps 713 mmHg 87%
    21:00 +7°C° 0.1 mm 6 mps 712 mmHg 88%
    22:00 +7°C° 0.1 mm 6 mps 712 mmHg 88%
    23:00 +7°C° 0.1 mm 5 mps 711 mmHg 89%
    Show more